Location: �quirre
(50.4736°N, 2.2351°E)
Time: 16:39:05
(UTC+00:00)

CENTAUR R/B - Pass Details

Date: 07 August 2020
Orbit: 754 x 1434 km, 63.5° (Epoch: 17 September)

Event Time Altitude Azimuth Distance (km) Brightness Sun altitude
Exits shadow 00:27:28 - 256° (WSW) 2,770 4.7 -22.8°
Reaches altitude 10° 00:27:43 10° 257° (WSW) 2,684 4.6 -22.8°
Maximum altitude 00:33:49 47° 330° (NNW) 1,405 3.6 -22.7°
Drops below altitude 10° 00:41:02 10° 43° (NE) 3,173 6.0 -22.5°
Sets 00:44:12 0° 49° (NE) 4,241 6.7 -22.4°
